DELTA 1 DEB, 4841

Orbit data source: Space-Track

DELTA 1 DEB, 4841 is space debris originally from a launch on Thu, 04 Jul 1968 UTC launched from the Air Force Western Test Range (AFWTR). Debris objects in space refer to the collection of defunct objects orbiting the Earth. Examples of debris include non-operational satellites, rocket bodies, and fragments generated from explosions, collisions, or faulty payload assembly.

Loading next visibility...
Identifier
4841, 1968-055D
Orbit
Active
Country
Flag of USUS
Related business
Manufacturer
Unknown
Mission
Spacecraft
Bus & Motor
Unknown
Mass
Unknown
Launch date (UTC)
1968-07-04 (57 years ago)
Launch vehicle
Unknown
Launch site
Air Force Western Test Range (AFWTR)
Object type
Payload
Rocket body
Debris
Shape & HBR
Unknown shape, 0.1 m
Radar Cross Section
Small (<0.1 m²)

Expand to show TLE details & history
Last TLE update: 3 days ago

TLE from 3 days ago
0 DELTA 1 DEB
1 04841U 68055D   25306.47720823  .00000089  00000-0  18112-3 0  9993
2 04841 120.7469 282.5345 2700635 118.7360  14.5331  9.29213156114366
Epoch: 2025-11-02T11:27Z
TLE epoch observation values (Epoch: 2025-11-02T11:27:10.791Z)
Latitude
29.91696°
Longitude
-91.35222°
Altitude
751.788 km
Speed
8.378 km/s
True Right ascension
08h 09m 44s
True Declination
29° 46' 06"
Sunlit
Object was in daylight at epoch
Visualization orbit readout
Latitude
Unknown
Longitude
Unknown
Altitude
Unknown
Speed
Unknown
Apparent Right ascension
Unknown
Apparent Declination
Unknown
Sunlit
N/A
Visualization observer readout
Local Sidereal Time
03:43:42
Azimuth
Unknown
Elevation
Unknown
Doppler factor
Unknown
Orbital elements
Apogee altitude
5,759.253 km
Perigee altitude
597.518 km
Semi-major axis
9,556.522 km
Eccentricity
0.27006
Inclination
120.7469°
RAAN
282.5345°
Arg. of periapsis
118.736°
True anomaly
25.88499°
Mean anomaly
14.5331°
Eccentric anomaly
19.76589°
Mean motion
2.32324 °/min
Orbital period
154.96 mins
BSTAR
0.00018112
Loading maneuver chart data...
Computing Atmospheric mass density...
Loading historical data...
Loading historical data...
Loading historical data...
Loading historical data...
Loading historical data...
Loading historical data...
Loading historical data...

Documentation

Showing up to 5 results
|